Flag for Algeria Weather past 2 weeks in Constantine, Algeria

Now
63 °F

Partly sunny.


Feels Like: 63 °F
Forecast: 49 / 67 °F
Wind: 12 mph from Northwest

Location: Constantine Airport

Current Time: May 26, 2015 at 1:37:36 PM

Latest Report: May 26, 2015 at 1:00 PM


Visibility: N/A

Pressure: 30.04 "Hg

Humidity: 59%

Dew point: 48 °F

Location of ConstantineLocation

Historic Weather in Constantine — Graph

°F

Constantine temperature yesterday

Maximum temperature yesterday: 72 °F (at 1:00 PM)
Minimum temperature yesterday: 46 °F (at 4:00 AM)
Average temperature yesterday: 59 °F

Past Weeks' High & Low Weather Summary

 TemperatureHumidityPressure
High97 °F (May 14, 3:00 PM)94% (May 17, 7:30 AM)30.33 "Hg (May 17, 7:30 AM)
Low41 °F (May 22, 3:30 AM)12% (May 14, 5:00 PM)29.86 "Hg (May 19, 2:00 PM)
Average63 °F59%30.09 "Hg
* Reported May 11 12:00 Noon — May 26 12:30 PM, Constantine, Weather by CustomWeather, © 2015

Note: Actual official high and low records may vary slightly from our data, if they occured in-between our weather recording intervals... More about our weather records

Advertising

Constantine weather history for previous 24 hours

 ConditionsComfort  
Time TempWeatherWind HumidityBarometerVisibility
12:30 PM
Tue, May 26
66 °FPartly sunny.8 mph56%30.04 "HgN/A
12:00 PM63 °FBroken clouds.12 mph64%30.04 "HgN/A
11:30 AM61 °FBroken clouds.12 mph68%30.04 "HgN/A
11:00 AM61 °FBroken clouds.9 mph68%30.04 "HgN/A
10:30 AM59 °FBroken clouds.9 mph68%30.04 "HgN/A
10:00 AM61 °FBroken clouds.13 mph63%30.04 "HgN/A
9:30 AM61 °FBroken clouds.12 mph68%30.04 "HgN/A
9:00 AM59 °FBroken clouds.6 mph72%30.04 "HgN/A
8:30 AM57 °FPartly sunny.6 mph72%30.04 "HgN/A
8:00 AM55 °FPartly sunny.7 mph77%30.01 "HgN/A
7:30 AM57 °FScattered clouds.7 mph67%30.01 "HgN/A
7:00 AM55 °FScattered clouds.5 mph77%30.01 "HgN/A
6:30 AM55 °FScattered clouds.6 mph77%30.01 "HgN/A
6:00 AM55 °FScattered clouds.6 mph82%30.01 "HgN/A
5:30 AM54 °FScattered clouds.5 mph88%29.98 "HgN/A
5:00 AM55 °FPassing clouds.5 mph82%29.98 "HgN/A
4:00 AM55 °FPassing clouds.5 mph82%29.98 "HgN/A
3:30 AM55 °FPassing clouds.6 mph82%29.98 "HgN/A
3:00 AM55 °FPassing clouds.8 mph82%29.98 "HgN/A
2:30 AM55 °FPassing clouds.6 mph82%29.98 "HgN/A
2:00 AM54 °FPassing clouds.8 mph88%29.98 "HgN/A
1:30 AM54 °FClear.10 mph88%29.98 "Hg10 mi
1:00 AM54 °FClear.8 mph88%29.98 "Hg10 mi
12:30 AM54 °FClear.7 mph88%29.98 "Hg10 mi
12:00 AM54 °FClear.5 mph88%29.98 "Hg10 mi
11:30 PM
Mon, May 25
54 °FPassing clouds.3 mph88%29.98 "HgN/A
11:00 PM55 °FPassing clouds.6 mph82%29.98 "HgN/A
10:30 PM55 °FPassing clouds.7 mph82%29.98 "HgN/A
9:30 PM57 °FPassing clouds.9 mph77%29.98 "HgN/A
9:00 PM57 °FPassing clouds.7 mph77%29.98 "HgN/A
8:30 PM57 °FPassing clouds.7 mph77%29.95 "HgN/A
8:00 PM59 °FPassing clouds.6 mph72%29.95 "HgN/A
7:30 PM61 °FScattered clouds.7 mph68%29.92 "HgN/A
7:00 PM61 °FScattered clouds.8 mph68%29.92 "HgN/A
6:30 PM63 °FScattered clouds.12 mph68%29.89 "HgN/A
6:00 PM66 °FScattered clouds.12 mph56%29.89 "HgN/A
5:30 PM66 °FScattered clouds.14 mph56%29.89 "HgN/A
5:00 PM68 °FScattered clouds.14 mph53%29.89 "HgN/A
4:30 PM70 °FScattered clouds.14 mph46%29.89 "HgN/A
4:00 PM68 °FScattered clouds.14 mph49%29.89 "HgN/A
3:30 PM70 °FScattered clouds.16 mph50%29.89 "HgN/A
3:00 PM72 °FScattered clouds.16 mph47%29.89 "HgN/A
2:30 PM72 °FScattered clouds.14 mph44%29.89 "HgN/A
2:00 PM72 °FScattered clouds.14 mph44%29.92 "HgN/A
1:30 PM72 °FPartly sunny.12 mph41%29.92 "HgN/A
1:00 PM72 °FBroken clouds.12 mph41%29.92 "HgN/A
Weather by CustomWeather, © 2015

See weather overviewHow to use our weather pages